Wind_Speed
9 9 9 9 9 9 9 9 9 9 9 9 9 9 8 8 8 8 7 7 7 7 7 7 7 7 6 7 7 8 8 8 9 9 10 11 12 12 13 14 15 16 17
9 10 10 10 10 10 10 10 10 10 10 10 9 9 9 9 9 9 8 9 9 9 9 9 8 8 8 8 9 9 10 11 11 12 13 14 14 15 16 17 18 18 19
10 11 11 11 11 11 11 10 10 10 10 10 10 10 10 10 9 9 10 10 11 11 11 10 10 10 10 10 11 12 13 13 14 15 15 16 17 18 19 20 21 22 22
11 11 12 12 11 11 11 11 11 11 11 11 11 10 10 10 10 11 11 12 13 13 13 12 12 12 13 13 14 14 15 16 17 18 18 19 19 21 21 22 22 24 25
12 12 12 12 12 12 12 12 12 12 12 12 12 12 12 12 12 12 13 14 14 14 15 15 15 15 15 16 16 17 18 19 20 20 21 22 23 23 24 25 25 26 27
13 13 13 13 13 13 13 13 13 13 13 13 14 13 14 14 14 15 15 16 16 16 16 17 17 18 18 19 20 20 21 22 23 23 24 25 26 27 28 28 29 30 31
14 14 14 14 14 14 14 14 14 15 14 14 15 15 15 16 17 17 18 18 18 18 18 19 19 20 21 22 23 24 24 25 26 27 27 28 29 30 30 31 32 33 34
14 15 14 14 15 15 15 16 16 16 16 16 16 17 17 18 19 19 19 19 20 20 20 21 22 22 23 24 25 26 26 27 28 29 30 31 32 33 33 34 35 36 37
16 16 16 16 16 17 17 17 18 18 18 18 18 19 19 20 21 21 21 22 22 22 23 24 24 25 26 26 27 28 29 30 31 32 33 34 35 36 37 38 39 40 41
17 17 18 18 18 18 18 19 19 19 19 19 20 20 21 22 23 23 24 24 25 25 26 27 28 28 29 30 31 32 33 33 34 35 37 37 38 39 40 41 43 44 44
18 18 19 19 19 19 20 20 20 20 20 21 21 22 23 23 24 25 26 27 28 29 29 30 31 31 32 33 34 35 36 37 38 39 40 41 41 42 43 45 45 46 46
19 19 20 21 21 21 22 22 22 22 23 23 23 24 25 26 27 28 29 30 30 31 32 33 33 34 35 36 38 39 39 40 41 42 43 43 44 45 46 47 47 48 48
20 21 21 22 23 23 23 24 24 25 25 26 26 27 28 29 29 30 31 32 33 34 35 36 37 38 39 40 41 42 43 43 44 44 45 45 46 47 48 49 50 50 51
21 22 23 24 25 25 26 26 26 27 27 28 29 30 31 31 32 33 34 35 36 37 38 39 40 41 42 42 43 44 44 45 46 47 47 48 49 50 51 52 52 52 52
24 24 25 26 26 27 28 28 29 29 30 31 31 32 33 34 35 36 37 38 39 40 41 41 42 43 43 44 45 46 46 47 48 49 50 51 52 52 53 54 54 55 54
26 27 27 28 29 29 30 30 31 32 32 33 34 35 36 37 38 39 40 40 41 42 42 43 44 45 46 46 47 48 49 50 51 52 53 54 54 55 55 56 57 57 56
28 29 30 30 31 31 32 32 33 34 35 36 36 37 38 39 40 41 42 43 43 43 44 45 46 47 48 48 49 50 51 52 53 55 55 55 56 56 57 58 58 58 58
30 30 31 32 32 33 33 34 35 36 36 37 38 39 40 41 42 43 44 45 45 46 47 47 48 49 49 50 51 51 53 54 55 56 56 57 58 58 59 59 59 58 58
31 31 32 32 33 34 35 35 36 37 38 39 40 41 43 44 45 45 46 47 47 48 49 49 50 51 52 52 53 54 55 56 57 57 58 59 59 59 59 59 59 59 59
32 33 33 34 34 35 37 38 39 40 41 42 43 43 45 45 46 47 48 48 49 49 50 51 52 53 54 54 55 56 56 57 57 59 60 60 60 60 60 60 60 60 60
34 35 35 36 37 38 39 40 41 42 43 44 44 45 45 46 47 48 48 49 49 50 51 52 53 54 55 55 56 57 58 58 59 60 60 60 60 61 60 60 60 59 59
36 36 37 38 39 40 41 42 43 44 44 45 45 45 46 47 47 48 49 49 50 51 52 53 54 55 55 57 58 59 59 60 60 61 61 60 61 61 60 60 59 58 57
38 38 39 40 41 42 43 44 44 45 46 46 47 47 47 48 48 49 49 50 51 52 54 54 55 55 56 58 59 60 60 60 60 60 60 60 60 59 58 57 56 56 55
40 41 42 43 44 44 45 45 46 46 47 48 48 49 49 49 50 50 51 52 53 54 55 55 56 57 58 59 60 60 60 60 60 59 59 58 58 57 56 55 54 53 52
42 43 44 45 46 46 47 47 47 48 49 49 50 50 51 51 52 52 53 54 55 55 55 56 57 58 58 59 59 59 58 58 58 57 56 56 55 54 53 52 51 50 49
44 45 46 46 46 47 47 48 48 49 50 51 52 52 53 53 54 54 54 55 55 55 55 56 56 57 58 57 57 56 55 55 54 53 53 53 52 51 51 50 49 48 47
Wind_Direction
244 249 255 259 265 266 268 269 270 274 277 280 281 279 276 277 279 273 280 289 297 300 302 308 313 314 311 307 308 309 312 312 308 307 305 301 298 299 299 296 295 294 292
252 253 257 262 269 270 271 271 270 273 275 277 279 279 277 276 276 272 279 285 290 294 297 300 301 302 301 301 302 304 305 307 308 306 304 302 299 298 298 297 295 295 294
258 260 261 264 268 270 271 271 270 271 273 277 281 280 279 277 276 274 277 281 286 289 292 293 294 293 293 293 294 296 299 301 303 303 302 302 301 299 298 296 293 293 292
260 265 264 265 268 268 270 271 271 271 272 273 277 277 276 277 278 277 279 283 285 285 287 288 289 290 290 291 293 294 296 298 300 299 299 299 299 300 299 298 296 295 295
262 265 263 266 268 268 268 270 271 271 273 274 273 275 275 278 279 279 281 284 285 285 285 285 287 288 289 291 292 294 295 297 298 299 299 299 299 298 298 297 296 297 296
264 265 264 267 268 268 269 269 270 271 272 273 274 274 275 276 278 281 284 284 285 285 285 286 287 288 289 290 292 294 295 295 297 298 298 299 298 298 297 296 296 296 295
265 268 269 269 269 270 269 269 271 273 274 275 274 275 275 276 278 281 283 285 285 285 285 286 287 287 288 290 292 293 294 295 296 297 298 299 298 298 297 297 296 296 296
264 267 269 270 270 271 272 273 273 274 276 278 278 277 277 278 279 281 283 285 285 285 286 286 287 288 289 291 292 293 293 295 296 297 298 298 298 298 297 296 296 297 296
265 266 268 269 271 273 274 274 275 276 277 278 279 278 278 279 280 281 283 284 284 285 286 287 288 289 290 290 291 293 294 294 295 296 297 298 297 297 297 296 296 296 296
265 267 268 269 271 273 273 273 275 276 277 278 279 280 281 282 283 284 284 284 285 285 287 288 289 290 290 291 292 293 294 294 295 296 296 297 296 296 297 297 296 296 296
267 268 271 272 271 272 273 274 276 277 279 280 282 283 283 282 282 284 285 285 285 286 287 288 290 290 290 291 292 293 293 294 294 295 296 296 296 297 298 298 298 298 297
269 270 271 272 274 274 274 275 276 278 279 280 282 283 284 285 285 285 285 286 287 287 288 289 290 290 291 292 292 292 293 294 294 295 296 297 297 298 298 298 298 298 297
272 273 273 274 274 275 275 277 278 279 280 281 282 283 284 285 286 286 286 286 287 287 288 289 289 290 291 291 291 292 292 293 294 295 296 296 297 298 298 298 298 298 298
274 274 275 276 276 277 278 280 280 281 281 282 283 284 285 285 286 286 286 286 286 287 288 289 289 290 290 291 291 292 292 293 294 295 296 297 297 298 298 298 298 298 297
276 277 278 279 279 280 280 280 281 281 282 283 284 285 285 286 286 286 287 287 287 288 289 289 289 290 290 291 291 292 292 293 294 295 296 297 297 297 298 298 298 297 297
277 278 279 279 279 280 281 281 282 283 283 283 284 285 285 286 286 287 287 288 288 289 289 289 290 290 290 291 292 292 293 293 294 295 296 296 296 297 297 298 298 297 297
278 279 280 280 280 281 282 282 283 284 284 284 285 286 286 286 287 288 289 289 289 290 290 291 291 292 292 292 292 292 292 293 295 295 295 295 296 296 297 297 297 297 296
280 281 281 282 282 283 283 284 285 285 286 285 286 286 287 288 288 289 289 290 290 290 291 292 292 292 292 292 292 292 293 293 294 294 294 295 295 296 296 296 296 296 296
281 281 282 283 284 284 285 286 286 287 287 288 288 288 288 289 289 289 289 290 290 291 291 292 292 292 292 292 292 292 292 293 294 294 294 295 295 295 296 296 296 296 296
281 282 283 284 285 286 287 287 288 288 289 289 289 290 290 290 290 290 290 290 291 291 291 292 292 292 292 292 293 293 293 294 294 294 294 294 294 295 295 295 295 295 295
282 283 284 285 286 287 288 289 290 290 290 291 292 292 292 292 292 291 291 292 292 293 293 293 293 293 293 293 293 293 294 294 294 294 294 294 294 294 295 294 294 295 294
283 284 285 286 287 288 289 290 290 291 291 292 292 293 293 293 293 293 293 293 294 294 294 294 294 294 293 293 293 293 293 293 293 293 294 294 294 294 294 294 294 294 294
283 285 286 287 288 289 290 290 291 291 292 293 293 293 293 293 294 294 294 294 294 294 295 295 295 294 294 294 294 294 294 294 294 294 294 294 294 294 293 293 294 294 294
284 285 286 287 288 289 290 290 291 291 292 292 293 293 293 293 294 294 295 295 295 295 295 296 296 295 295 295 296 296 295 294 294 294 294 294 294 294 293 293 293 293 293
285 285 286 287 288 289 289 290 290 290 291 291 292 293 293 294 294 294 295 295 296 296 296 297 297 297 297 297 297 297 296 295 295 295 294 294 294 294 294 294 293 293 293
286 286 287 288 289 289 289 289 290 290 291 292 292 293 294 294 295 294 294 295 295 296 296 297 298 298 298 298 298 297 296 295 295 294 294 294 294 294 294 294 293 293 293
Height
5866 5867 5867 5867 5867 5866 5866 5865 5864 5864 5863 5862 5861 5861 5861 5861 5861 5861 5862 5863 5863 5862 5862 5862 5861 5860 5860 5859 5859 5858 5858 5857 5856 5855 5854 5853 5853 5852 5852 5851 5850 5849 5849
5864 5864 5864 5864 5864 5863 5862 5862 5861 5860 5860 5859 5858 5858 5858 5858 5858 5859 5860 5861 5861 5861 5860 5860 5859 5859 5858 5857 5857 5856 5855 5855 5854 5853 5852 5851 5850 5849 5848 5847 5846 5845 5844
5861 5861 5861 5861 5861 5860 5860 5859 5858 5857 5857 5857 5856 5856 5855 5856 5856 5857 5858 5858 5858 5858 5858 5858 5857 5856 5856 5855 5854 5854 5853 5852 5851 5850 5848 5847 5846 5844 5843 5842 5841 5840 5838
5859 5859 5858 5858 5858 5858 5857 5856 5856 5855 5855 5854 5854 5854 5854 5854 5854 5855 5855 5856 5855 5855 5855 5854 5854 5853 5853 5852 5851 5850 5849 5848 5847 5846 5844 5843 5841 5840 5838 5837 5836 5834 5832
5856 5856 5856 5856 5855 5855 5854 5854 5853 5853 5853 5852 5852 5852 5852 5852 5852 5852 5853 5852 5852 5852 5851 5851 5850 5849 5849 5848 5847 5846 5845 5843 5842 5841 5839 5837 5836 5834 5833 5831 5829 5828 5826
5852 5852 5852 5852 5852 5852 5851 5851 5851 5850 5850 5850 5849 5849 5849 5849 5849 5849 5849 5849 5848 5848 5847 5846 5846 5845 5844 5843 5842 5841 5839 5838 5836 5835 5833 5831 5829 5827 5825 5823 5821 5820 5818
5849 5849 5849 5849 5849 5849 5848 5848 5848 5847 5847 5847 5846 5846 5846 5846 5846 5846 5845 5845 5844 5844 5843 5842 5841 5840 5839 5838 5836 5835 5833 5831 5829 5828 5826 5824 5821 5819 5817 5815 5812 5810 5808
5845 5846 5846 5845 5845 5845 5845 5844 5844 5844 5844 5843 5843 5842 5842 5842 5842 5841 5841 5840 5840 5839 5838 5837 5836 5834 5833 5831 5830 5828 5826 5824 5822 5820 5818 5816 5813 5810 5808 5805 5803 5800 5797
5841 5841 5841 5841 5841 5841 5841 5840 5840 5840 5840 5839 5839 5838 5838 5837 5837 5836 5835 5835 5834 5833 5832 5830 5829 5828 5826 5824 5823 5821 5819 5816 5814 5811 5809 5806 5803 5800 5797 5795 5792 5789 5786
5837 5837 5837 5836 5837 5836 5836 5836 5836 5835 5835 5834 5834 5833 5833 5832 5831 5830 5829 5828 5828 5826 5825 5824 5822 5820 5818 5816 5814 5812 5810 5808 5805 5802 5799 5796 5793 5789 5786 5783 5779 5776 5773
5832 5832 5832 5832 5832 5832 5831 5831 5831 5830 5830 5829 5828 5828 5827 5826 5825 5824 5822 5821 5820 5819 5817 5816 5814 5812 5810 5807 5805 5803 5800 5798 5795 5792 5788 5785 5782 5778 5774 5770 5766 5762 5758
5827 5827 5827 5826 5826 5826 5826 5825 5825 5824 5824 5823 5822 5821 5820 5819 5818 5816 5815 5813 5812 5810 5809 5807 5805 5802 5800 5798 5795 5792 5790 5787 5783 5780 5777 5774 5770 5766 5761 5757 5752 5748 5744
5822 5821 5821 5821 5820 5820 5820 5819 5819 5818 5817 5816 5815 5814 5813 5811 5810 5808 5806 5804 5802 5800 5799 5797 5794 5792 5789 5787 5784 5781 5778 5775 5772 5768 5765 5761 5757 5753 5748 5743 5738 5734 5729
5816 5816 5815 5815 5814 5813 5813 5812 5811 5811 5810 5808 5807 5806 5804 5803 5801 5799 5797 5795 5793 5790 5788 5785 5783 5780 5777 5775 5772 5769 5765 5762 5759 5755 5752 5748 5743 5739 5734 5729 5724 5719 5715
5809 5809 5808 5808 5807 5806 5805 5805 5804 5803 5801 5800 5798 5797 5795 5794 5791 5789 5786 5784 5781 5779 5776 5774 5771 5768 5765 5762 5759 5756 5752 5749 5745 5741 5737 5733 5729 5724 5719 5713 5708 5703 5698
5803 5802 5801 5800 5799 5798 5797 5796 5795 5794 5792 5790 5788 5786 5784 5782 5780 5778 5775 5772 5769 5767 5764 5761 5758 5755 5752 5749 5745 5742 5738 5734 5730 5726 5722 5718 5713 5708 5703 5698 5692 5687 5682
5795 5794 5793 5792 5791 5789 5788 5787 5786 5784 5782 5780 5778 5775 5773 5771 5768 5765 5762 5759 5757 5753 5751 5748 5745 5741 5738 5734 5731 5727 5723 5719 5715 5710 5706 5701 5697 5692 5687 5681 5676 5670 5665
5786 5785 5784 5783 5781 5780 5778 5777 5775 5773 5771 5769 5767 5764 5761 5759 5756 5752 5749 5746 5743 5740 5737 5733 5730 5727 5723 5719 5715 5711 5708 5703 5699 5694 5689 5685 5680 5674 5669 5664 5658 5653 5648
5777 5776 5775 5773 5771 5770 5768 5766 5764 5762 5760 5758 5755 5752 5748 5745 5742 5739 5735 5732 5729 5726 5722 5718 5715 5711 5707 5703 5699 5695 5691 5686 5682 5677 5672 5667 5662 5657 5652 5646 5641 5636 5630
5768 5766 5765 5763 5761 5759 5757 5755 5753 5750 5748 5745 5742 5739 5735 5731 5728 5725 5721 5717 5713 5710 5706 5703 5699 5695 5691 5687 5683 5678 5674 5669 5664 5659 5655 5649 5644 5639 5634 5628 5623 5618 5612
5758 5756 5754 5753 5751 5748 5746 5744 5741 5738 5735 5732 5729 5725 5721 5717 5714 5710 5706 5702 5698 5694 5690 5686 5682 5678 5674 5670 5665 5661 5656 5652 5647 5642 5637 5631 5626 5621 5616 5610 5605 5599 5594
5747 5745 5744 5742 5739 5737 5734 5731 5728 5725 5722 5718 5715 5712 5708 5704 5700 5696 5692 5688 5683 5679 5674 5670 5666 5661 5657 5652 5647 5643 5638 5634 5629 5623 5618 5613 5608 5603 5597 5592 5587 5581 5576
5736 5734 5732 5730 5727 5724 5721 5718 5715 5712 5708 5705 5701 5697 5694 5690 5686 5681 5677 5672 5668 5663 5659 5654 5649 5644 5640 5635 5629 5625 5620 5615 5610 5604 5599 5594 5589 5584 5579 5574 5569 5564 5560
5724 5722 5719 5717 5714 5711 5708 5705 5702 5698 5695 5691 5687 5683 5679 5675 5671 5667 5662 5657 5652 5648 5642 5637 5632 5627 5622 5617 5611 5606 5600 5595 5590 5585 5580 5576 5571 5566 5561 5556 5552 5547 5543
5711 5709 5706 5703 5700 5697 5694 5691 5688 5684 5680 5676 5672 5668 5664 5660 5656 5651 5646 5642 5637 5631 5626 5621 5615 5609 5604 5598 5593 5587 5582 5577 5571 5567 5562 5558 5553 5548 5544 5540 5535 5531 5527
5698 5695 5692 5689 5686 5683 5680 5676 5673 5669 5666 5662 5657 5653 5649 5644 5640 5635 5630 5625 5620 5615 5610 5604 5598 5592 5586 5580 5575 5569 5564 5559 5554 5549 5544 5540 5536 5532 5528 5524 5520 5516 5513